Welcome to the New NWS' Forecast!
Most changes are behind the scenes, but click here for differences you might notice.

Regional Weather Roundup (RWR)

Issued by Gray - Portland, ME (GYX)

                            
322 
ASUS41 KGYX 140010
RWRGYX
WEATHER ROUNDUP FOR MAINE AND NEW HAMPSHIRE
NATIONAL WEATHER SERVICE GRAY ME
800 PM EDT MON AUG 13 2018

MEZ002-005-006-010-012-015-018-020-021-024-026-027-029-140100-
MAINE
  
CITY           SKY/WX    TMP DP  RH WIND       PRES   REMARKS
PORTLAND       FOG       66  66 100 E6        30.03S VSB 1            
6HR MIN TEMP:  65; 6HR MAX TEMP:  71;                                

SANFORD        CLOUDY    67  66  97 NE7       30.02S                  
BAR HARBOR     CLOUDY    67  65  93 E5        30.04F                  
WISCASSET      CLOUDY    70  67  90 CALM      30.04S                  
6HR MIN TEMP:  70; 6HR MAX TEMP:  75;                                

ROCKLAND       CLOUDY    67  65  93 E5        30.03F                  
FRYEBURG       CLOUDY    72  71  97 SE3       30.03S                  
6HR MIN TEMP:  72; 6HR MAX TEMP:  77; 6HR PCP: TRACE;                

LEWISTONAUBURN MOCLDY    72  69  90 S3        30.03S                  
AUGUSTA        FAIR      72  68  87 SE6       30.03F                  
6HR MIN TEMP:  72; 6HR MAX TEMP:  78;                                

WATERVILLE     FAIR      72  68  87 CALM      30.00S                  
BANGOR         CLOUDY    72  68  87 S6        30.03F                  
6HR MIN TEMP:  72; 6HR MAX TEMP:  77; 6HR PCP: TRACE;                

GREENVILLE       N/A     70  67  90 S3        30.03F                  
6HR MIN TEMP:  70; 6HR MAX TEMP:  79;                                

MILLINOCKET    NOT AVBL                                               
HOULTON        FAIR      73  68  84 S5        30.00S                  
6HR MIN TEMP:  73; 6HR MAX TEMP:  83;                                

PRESQUE ISLE   FAIR      76  65  68 S6        29.99F                  
6HR MIN TEMP:  75; 6HR MAX TEMP:  85;                                

FRENCHVILLE    FAIR      78  61  55 SE6       29.99S                  
6HR MIN TEMP:  77; 6HR MAX TEMP:  87;                                

CARIBOU        FAIR      76  63  64 CALM      29.98S                  
6HR MIN TEMP:  76; 6HR MAX TEMP:  86;                                

$$

NHZ002-005-008-009-011-012-014-140100-
NEW HAMPSHIRE
  
CITY           SKY/WX    TMP DP  RH WIND       PRES   REMARKS
PORTSMOUTH     LGT RAIN  67  66  97 NE7       29.99S VSB 1/2          
ROCHESTER      CLOUDY    69  68  96 NE6       30.01S                  
6HR MIN TEMP:  69; 6HR MAX TEMP:  74;                                

NASHUA         LGT RAIN  70  70 100 VRB5      30.00R                  
MANCHESTER     LGT RAIN  71  69  93 E7        29.98S                  
6HR MIN TEMP:  71; 6HR MAX TEMP:  74; 6HR PCP:  0.03;                

CONCORD        CLOUDY    71  68  90 E8        30.00F                  
6HR MIN TEMP:  71; 6HR MAX TEMP:  75; 6HR PCP:  0.01;                

LACONIA        CLOUDY    71  68  90 E9        30.02S                  
PLYMOUTH       CLOUDY    70  67  90 CALM      30.01S                  
BERLIN         FAIR      72  67  84 S5        30.04R                  
6HR MIN TEMP:  72; 6HR MAX TEMP:  80;                                

WHITEFIELD     MOCLDY    74  65  73 S6        30.02S                  
6HR MIN TEMP:  73; 6HR MAX TEMP:  79; 6HR PCP: TRACE;                

JAFFREY        CLOUDY    70  69  97 CALM      30.01S                  
6HR MIN TEMP:  69; 6HR MAX TEMP:  70; 6HR PCP:  0.07;                

KEENE          CLOUDY   N/A N/A N/A CALM      29.98S                  
LEBANON        CLOUDY    73  65  75 NE3       30.00S                  
6HR MIN TEMP:  72; 6HR MAX TEMP:  76;                                

MT WASHINGTON  FOG       52  52 100 E14         N/A  VSB 1/16         
6HR MIN TEMP:  52; 6HR MAX TEMP:  55; 6HR PCP: TRACE;                

$$

VTZ005-007-008-140100-
VERMONT
  
CITY           SKY/WX    TMP DP  RH WIND       PRES   REMARKS
ST JOHNSBURY     N/A     73  70  90 MISG      29.98S                  
MONTPELIER     FAIR      72  68  87 S3        30.05F                  
BURLINGTON     CLOUDY    79  66  64 SE6       29.96F                  
$$

MAZ007-012-024-CTZ003-RIZ002-NYZ038-NYZ072-140100-
SOUTHERN NEW ENGLAND AND NY
  
CITY           SKY/WX    TMP DP  RH WIND       PRES   REMARKS
BOSTON         DRZL/FOG  70  68  93 NE12      29.97S VSB 1            
WORCESTER      FOG       67  67 100 NE7       29.98F VSB 1/4          
NANTUCKET      FOG       68  68 100 E9        29.95S VSB 1            
PROVIDENCE     CLOUDY    73  73 100 E9        29.94S                  
HARTFORD       LGT RAIN  71  70  96 N8        29.92F                  
ALBANY         LGT RAIN  73  69  87 NE5       29.95S                  
NEW YORK CITY  LGT RAIN  74  71  91 NE6       29.88R                  
$$

ANZ081-ANZ082-ANZ150-NHZ014-MEZ023>029-140100-
COASTAL MARINE OBSERVATIONS
  
STATION/POSITION TIME  TEMP    WIND        PRES    WAVE
                       AIR SEA DIR/SP/G            HT/PER
                 (UTC) (F)     (DEG/KT/KT) (MB)    (FT/S)
MOUNT DESERT ROC 0000   61      60/ 13/ 13 1017.0F
MATINICUS ROCK   2300   62      40/ 12/ 13 1016.7F
ISLE OF SHOALS   2300   66      40/ 12/ 15 1015.3F
JEFFREYS LEDGE   2336      72                N/A     2/14
$$

.............KEY..............
   WCI - WIND CHILL
   TC  - TEMPERATURE IN CELSIUS
   VSB - VISIBILITY IN MILES
   HX  - HEAT INDEX
   FAIR- INDICATES FEW OR NO CLOUDS BELOW 12,000 FT, WITH NO 
         SIGNIFICANT WEATHER AND/OR OBSTRUCTIONS TO VISIBILITY.